Regional Weather Roundup
Issued by NWS

Home | Current Version | Previous Version | Text Only | Print | Product List | Glossary Off
Versions: 1 2 3 4 5 6 7 8 9 10 11 12 13 14 15 16 17 18 19 20 21 22 23 24 25 26 27 28 29 30 31 32 33 34 35 36 37 38 39 40 41 42 43 44 45 46 47 48 49 50

000
ASUS43 KFSD 271210
RWRSD

WEATHER ROUNDUP FOR SOUTH DAKOTA
NATIONAL WEATHER SERVICE SIOUX FALLS SD
600 AM CST THU NOV 27 2014

NOTE: "FAIR" INDICATES FEW OR NO CLOUDS BELOW 12,000 FEET WITH NO
SIGNIFICANT WEATHER AND/OR OBSTRUCTIONS TO VISIBILITY.


SDZ001>005-009-010-012>017-271300-
NORTHWEST AND NORTH CENTRAL SOUTH DAKOTA

CITY           SKY/WX    TMP DP  RH WIND       PRES   REMARKS
BUFFALO          N/A     19  16  88 SE10      30.08F WCI   7
FAITH            N/A     13  10  88 SE14      30.23F WCI  -2
MOBRIDGE       PTCLDY     0  -6  76 E10       30.35F WCI -16
$$

SDZ012>016-024>037-041>051-057-063-072>074-271300-
SOUTHWEST AND SOUTH CENTRAL SOUTH DAKOTA

CITY           SKY/WX    TMP DP  RH WIND       PRES   REMARKS
RAPID CTY ARPT CLOUDY    20  18  92 SE8       30.16F WCI  10
PIERRE         CLOUDY    12   8  84 E13       30.36F WCI  -3
CUSTER         PTCLDY    24  20  84 SW5       30.07F WCI  18
ELLSWORTH AFB  CLOUDY    21  19  93 SE9       30.14F WCI  11
PHILIP         CLOUDY    19  12  74 E14       30.28F WCI   6
PINE RIDGE     MOCLDY    28  23  81 S7        30.15F WCI  21
SPEARFISH      FOG       18  16  93 CALM      30.08F VSB 1/2
WINNER         CLOUDY    16   8  71 SE14      30.36S WCI   2
$$

SDZ004>011-016>023-039-040-271300-
NORTHEAST SOUTH DAKOTA

CITY           SKY/WX    TMP DP  RH WIND       PRES   REMARKS
ABERDEEN       PTCLDY   -13 -18  78 CALM      30.50F
WATERTOWN      MOCLDY   -12 -17  78 CALM      30.43F
SISSETON         N/A    -14 -19  79 SW3       30.52F
$$

SDZ017-020-022-023-036>040-048>070-271300-
SOUTHEAST SOUTH DAKOTA

CITY           SKY/WX    TMP DP  RH WIND       PRES   REMARKS
SIOUX FALLS    PTCLDY    -4  -9  79 N3        30.48F
HURON          PTCLDY    -6 -10  83 E3        30.50F
CHAMBERLAIN    CLOUDY    10   3  75 E9        30.40F WCI  -3
MITCHELL       PTCLDY     1  -5  75 NE5       30.51F WCI  -9
YANKTON        CLOUDY    10   3  72 NE7       30.50S WCI   0
$$

ABBREVIATIONS USED IN REMARKS
   TC - TEMPERATURE IN CELSIUS
  WCI - WIND CHILL INDEX
   HX - HEAT INDEX
  VSB - VISIBILITY



USA.gov is the U.S. government's official web portal to all federal, state and local government web resources and services.